When you browse on this site, cookies collect data to enhance your experience and personalize the content and advertising you see.
Visit our Privacy Policy to learn more. By continuing to use the site, you agree to this use of cookies and data.
EN

Hourly Weather Polyany

Today, 18 September, Friday

Time Temperature Precipitation Wind Pressure Humidity
00:00 +15°C° 0 mm 7 mps 744 mmHg 40%
01:00 +15°C° 0 mm 8 mps 743 mmHg 39%
02:00 +15°C° 0 mm 8 mps 743 mmHg 38%
03:00 +15°C° 0 mm 9 mps 742 mmHg 35%
04:00 +15°C° 0 mm 8 mps 742 mmHg 35%
05:00 +13°C° 0 mm 8 mps 741 mmHg 35%
06:00 +13°C° 0 mm 8 mps 741 mmHg 35%
07:00 +14°C° 0.1 mm 7 mps 741 mmHg 49%
08:00 +13°C° 0.1 mm 6 mps 741 mmHg 62%
09:00 +13°C° 0.1 mm 5 mps 742 mmHg 76%
10:00 +12°C° 0.4 mm 4 mps 741 mmHg 78%
11:00 +11°C° 0.4 mm 4 mps 741 mmHg 81%
12:00 +11°C° 0.4 mm 3 mps 741 mmHg 83%
13:00 +11°C° 1.4 mm 3 mps 741 mmHg 83%
14:00 +11°C° 1.4 mm 3 mps 741 mmHg 83%
15:00 +10°C° 1.4 mm 2 mps 741 mmHg 83%
16:00 +10°C° 0.1 mm 2 mps 741 mmHg 83%
17:00 +12°C° 0.1 mm 2 mps 741 mmHg 84%
18:00 +12°C° 0.1 mm 2 mps 741 mmHg 84%
19:00 +10°C° 0 mm 2 mps 741 mmHg 85%
20:00 +9°C° 0 mm 2 mps 741 mmHg 86%
21:00 +9°C° 0 mm 2 mps 741 mmHg 87%
22:00 +8°C° 0 mm 2 mps 741 mmHg 88%
23:00 +8°C° 0 mm 2 mps 740 mmHg 88%

Tomorrow, 19 September, Saturday

Time Temperature Precipitation Wind Pressure Humidity
00:00 +8°C° 0 mm 2 mps 740 mmHg 89%
01:00 +7°C° 0 mm 2 mps 740 mmHg 90%
02:00 +7°C° 0 mm 2 mps 740 mmHg 91%
03:00 +7°C° 0 mm 2 mps 740 mmHg 92%
04:00 +6°C° 0 mm 2 mps 740 mmHg 93%
05:00 +5°C° 0 mm 3 mps 740 mmHg 94%
06:00 +5°C° 0 mm 3 mps 740 mmHg 95%
07:00 +6°C° 0 mm 4 mps 740 mmHg 91%
08:00 +7°C° 0 mm 5 mps 740 mmHg 87%
09:00 +9°C° 0 mm 5 mps 740 mmHg 83%
10:00 +9°C° 0.2 mm 6 mps 740 mmHg 84%
11:00 +9°C° 0.2 mm 7 mps 740 mmHg 84%
12:00 +9°C° 0.2 mm 7 mps 741 mmHg 85%
13:00 +8°C° 0 mm 7 mps 741 mmHg 83%
14:00 +8°C° 0 mm 7 mps 741 mmHg 81%
15:00 +8°C° 0 mm 7 mps 742 mmHg 78%
16:00 +8°C° 0 mm 7 mps 742 mmHg 79%
17:00 +8°C° 0 mm 6 mps 742 mmHg 80%
18:00 +8°C° 0 mm 5 mps 742 mmHg 81%
19:00 +8°C° 0 mm 5 mps 742 mmHg 84%
20:00 +7°C° 0 mm 5 mps 742 mmHg 87%
21:00 +7°C° 0 mm 4 mps 742 mmHg 91%
22:00 +7°C° 0 mm 4 mps 742 mmHg 91%
23:00 +6°C° 0 mm 4 mps 742 mmHg 92%

Day after tomorrow, 20 September, Sunday

Time Temperature Precipitation Wind Pressure Humidity
00:00 +6°C° 0 mm 4 mps 742 mmHg 92%
01:00 +5°C° 0 mm 4 mps 742 mmHg 92%
02:00 +5°C° 0 mm 4 mps 742 mmHg 93%
03:00 +5°C° 0 mm 4 mps 742 mmHg 93%
04:00 +5°C° 0 mm 4 mps 742 mmHg 93%
05:00 +5°C° 0 mm 5 mps 743 mmHg 94%
06:00 +5°C° 0 mm 5 mps 743 mmHg 94%
07:00 +5°C° 0 mm 6 mps 743 mmHg 89%
08:00 +5°C° 0 mm 7 mps 743 mmHg 83%
09:00 +6°C° 0 mm 8 mps 744 mmHg 77%
10:00 +6°C° 0 mm 8 mps 744 mmHg 76%
11:00 +6°C° 0 mm 7 mps 745 mmHg 75%
12:00 +6°C° 0 mm 7 mps 745 mmHg 73%
13:00 +6°C° 0 mm 7 mps 746 mmHg 71%
14:00 +6°C° 0 mm 7 mps 746 mmHg 68%
15:00 +6°C° 0 mm 7 mps 746 mmHg 65%
16:00 +7°C° 0 mm 6 mps 747 mmHg 65%
17:00 +7°C° 0 mm 5 mps 747 mmHg 65%
18:00 +8°C° 0 mm 3 mps 748 mmHg 65%
19:00 +8°C° 0 mm 3 mps 748 mmHg 64%
20:00 +8°C° 0 mm 3 mps 748 mmHg 63%
21:00 +8°C° 0 mm 3 mps 749 mmHg 63%
22:00 +7°C° 0 mm 3 mps 749 mmHg 67%
23:00 +7°C° 0 mm 3 mps 749 mmHg 71%

21 September, Monday

Time Temperature Precipitation Wind Pressure Humidity
00:00 +5°C° 0 mm 3 mps 749 mmHg 75%
01:00 +4°C° 0 mm 3 mps 749 mmHg 77%
02:00 +4°C° 0 mm 3 mps 750 mmHg 80%
03:00 +3°C° 0 mm 3 mps 750 mmHg 83%
04:00 +3°C° 0 mm 3 mps 750 mmHg 84%
05:00 +3°C° 0 mm 4 mps 750 mmHg 85%
06:00 +3°C° 0 mm 4 mps 750 mmHg 86%
07:00 +5°C° 0 mm 5 mps 750 mmHg 80%
08:00 +7°C° 0 mm 5 mps 749 mmHg 74%
09:00 +9°C° 0 mm 6 mps 749 mmHg 68%
10:00 +10°C° 0 mm 7 mps 749 mmHg 64%
11:00 +11°C° 0 mm 7 mps 749 mmHg 60%
12:00 +12°C° 0 mm 7 mps 749 mmHg 56%
13:00 +12°C° 0 mm 7 mps 749 mmHg 56%
14:00 +12°C° 0 mm 7 mps 748 mmHg 56%
15:00 +14°C° 0 mm 7 mps 748 mmHg 56%
16:00 +13°C° 0 mm 6 mps 748 mmHg 60%
17:00 +12°C° 0 mm 5 mps 748 mmHg 63%
18:00 +10°C° 0 mm 5 mps 748 mmHg 67%
19:00 +10°C° 0 mm 5 mps 748 mmHg 69%
20:00 +9°C° 0 mm 5 mps 748 mmHg 71%
21:00 +9°C° 0 mm 5 mps 748 mmHg 73%
22:00 +9°C° 0 mm 5 mps 748 mmHg 75%
23:00 +9°C° 0 mm 5 mps 748 mmHg 77%

22 September, Tuesday

Time Temperature Precipitation Wind Pressure Humidity
00:00 +8°C° 0 mm 5 mps 748 mmHg 79%
01:00 +8°C° 0 mm 4 mps 748 mmHg 82%
02:00 +8°C° 0 mm 4 mps 749 mmHg 84%
03:00 +8°C° 0 mm 4 mps 749 mmHg 87%
04:00 +8°C° 0 mm 3 mps 749 mmHg 90%
05:00 +8°C° 0 mm 3 mps 750 mmHg 93%
06:00 +7°C° 0 mm 3 mps 750 mmHg 95%
07:00 +9°C° 0 mm 2 mps 750 mmHg 88%
08:00 +10°C° 0 mm 2 mps 751 mmHg 81%
09:00 +13°C° 0 mm 2 mps 751 mmHg 74%
10:00 +14°C° 0 mm 2 mps 752 mmHg 67%
11:00 +14°C° 0 mm 3 mps 752 mmHg 61%
12:00 +17°C° 0 mm 3 mps 752 mmHg 54%
13:00 +17°C° 0 mm 3 mps 752 mmHg 55%
14:00 +17°C° 0 mm 3 mps 752 mmHg 55%
15:00 +18°C° 0 mm 3 mps 752 mmHg 56%
16:00 +17°C° 0 mm 2 mps 752 mmHg 59%
17:00 +16°C° 0 mm 2 mps 752 mmHg 62%
18:00 +16°C° 0 mm 1 mps 752 mmHg 64%
19:00 +15°C° 0 mm 1 mps 752 mmHg 68%
20:00 +14°C° 0 mm 2 mps 753 mmHg 71%
21:00 +13°C° 0 mm 2 mps 753 mmHg 75%
22:00 +12°C° 0 mm 2 mps 753 mmHg 77%
23:00 +12°C° 0 mm 2 mps 753 mmHg 79%

23 September, Wednesday

Time Temperature Precipitation Wind Pressure Humidity
00:00 +11°C° 0 mm 3 mps 753 mmHg 81%
01:00 +10°C° 0 mm 3 mps 753 mmHg 82%
02:00 +10°C° 0 mm 3 mps 753 mmHg 83%
03:00 +10°C° 0 mm 3 mps 753 mmHg 84%
04:00 +9°C° 0 mm 3 mps 753 mmHg 85%
05:00 +9°C° 0 mm 3 mps 754 mmHg 85%
06:00 +9°C° 0 mm 3 mps 754 mmHg 85%
07:00 +11°C° 0 mm 3 mps 754 mmHg 78%
08:00 +12°C° 0 mm 4 mps 754 mmHg 71%
09:00 +14°C° 0 mm 4 mps 754 mmHg 64%
10:00 +17°C° 0 mm 4 mps 754 mmHg 59%
11:00 +17°C° 0 mm 5 mps 754 mmHg 53%
12:00 +20°C° 0 mm 5 mps 754 mmHg 48%
13:00 +20°C° 0 mm 5 mps 754 mmHg 47%
14:00 +21°C° 0 mm 5 mps 753 mmHg 46%
15:00 +21°C° 0 mm 4 mps 753 mmHg 45%
16:00 +20°C° 0 mm 4 mps 753 mmHg 50%
17:00 +18°C° 0 mm 3 mps 753 mmHg 55%
18:00 +17°C° 0 mm 3 mps 753 mmHg 60%
19:00 +16°C° 0 mm 3 mps 753 mmHg 61%
20:00 +14°C° 0 mm 3 mps 753 mmHg 62%
21:00 +14°C° 0 mm 3 mps 753 mmHg 63%
22:00 +13°C° 0 mm 3 mps 753 mmHg 63%
23:00 +13°C° 0 mm 3 mps 753 mmHg 63%
Show more